EW6135 Weather Reports


Display with metric or nautical units.
time (UTC)temp
F
wind
direction
speed
MPH
gust
MPH
rain 1hr
in
rain 24hr
in
rain mn
in
humidity
%
barometer
mb
20260505090008 52 291 0.0 0.0 0.00 0.02 0.00 98 1017.0
20260505085507 52 291 0.0 0.0 0.00 0.02 0.00 98 1017.0
20260505085006 52 291 0.0 0.0 0.00 0.02 0.00 98 1017.0
20260505084511 52 291 0.0 0.0 0.00 0.02 0.00 98 1016.9
20260505084006 52 291 0.0 0.0 0.00 0.02 0.00 97 1016.9
20260505083504 52 291 0.0 0.0 0.00 0.02 0.00 97 1016.9
20260505083003 53 291 0.0 0.0 0.00 0.02 0.00 98 1016.9
20260505082506 53 291 0.0 0.0 0.00 0.02 0.00 98 1017.0
20260505082002 53 291 0.0 0.0 0.00 0.02 0.00 98 1016.9
20260505081503 53 291 0.0 0.0 0.00 0.02 0.00 98 1017.0
20260505080502 53 291 0.0 0.0 0.00 0.02 0.00 97 1016.8
20260505080006 53 291 0.0 0.0 0.00 0.02 0.00 97 1016.7
20260505075501 53 291 0.0 0.0 0.00 0.02 0.00 97 1016.7
20260505075001 53 291 0.0 0.0 0.00 0.02 0.00 97 1016.7
20260505074600 53 291 0.0 0.0 0.00 0.02 0.00 97 1016.7
20260505074102 54 291 0.0 0.0 0.00 0.02 0.00 97 1016.6
20260505073559 54 291 0.0 0.0 0.00 0.02 0.00 97 1016.6
20260505073102 54 291 0.0 0.0 0.00 0.02 0.00 97 1016.6
20260505072600 54 291 0.0 0.0 0.00 0.02 0.00 97 1016.6
20260505072058 54 291 0.0 0.0 0.00 0.02 0.00 97 1016.6
20260505071614 54 291 0.0 0.0 0.00 0.02 0.00 97 1016.6
20260505070558 54 291 0.0 1.0 0.00 0.02 0.00 97 1016.6
20260505070057 54 291 0.0 0.0 0.00 0.02 0.00 97 1016.7
20260505065557 54 291 0.0 0.0 0.00 0.02 0.00 97 1016.6
20260505065056 54 291 0.0 0.0 0.00 0.02 0.00 97 1016.6
20260505064603 54 291 0.0 0.0 0.00 0.02 0.00 97 1016.6
20260505064056 54 291 0.0 0.0 0.00 0.02 0.00 96 1016.6
20260505063557 54 291 0.0 0.0 0.00 0.02 0.00 96 1016.7
20260505063055 54 291 0.0 0.0 0.00 0.02 0.00 96 1016.7
20260505062553 54 291 0.0 0.0 0.00 0.02 0.00 96 1016.7
20260505062052 54 291 0.0 0.0 0.00 0.02 0.00 96 1016.7
20260505061556 55 291 0.0 0.0 0.00 0.02 0.00 96 1016.8
20260505060551 55 291 0.0 1.0 0.00 0.02 0.00 95 1016.8
20260505060100 55 291 0.0 1.0 0.00 0.02 0.00 95 1016.9
20260505055550 55 291 0.0 0.0 0.00 0.02 0.00 95 1017.0
20260505055054 55 291 0.0 0.0 0.00 0.02 0.00 94 1017.0
20260505054552 55 291 0.0 0.0 0.00 0.02 0.00 94 1017.0
20260505054048 56 291 0.0 0.0 0.00 0.02 0.00 94 1017.0
20260505053546 56 291 0.0 0.0 0.00 0.02 0.00 94 1017.0
20260505053046 56 291 0.0 0.0 0.00 0.02 0.00 93 1017.0
20260505052545 56 291 0.0 0.0 0.00 0.02 0.00 93 1017.0
20260505052044 56 291 0.0 1.0 0.00 0.02 0.00 93 1017.0
20260505051547 57 291 0.0 1.0 0.00 0.02 0.00 92 1017.1
20260505050543 57 291 0.0 0.0 0.00 0.02 0.00 92 1017.1
20260505041548 59 264 0.0 0.0 0.00 0.02 0.00 87 1017.2
20260505040533 60 264 0.0 0.0 0.00 0.02 0.00 85 1017.3
20260505040034 61 264 0.0 1.0 0.00 0.02 0.00 84 1017.3
20260505035534 61 264 0.0 2.0 0.00 0.02 0.02 83 1017.3
20260505035034 61 264 0.0 2.0 0.00 0.02 0.02 83 1017.3
20260505034532 62 253 0.0 1.0 0.00 0.02 0.02 82 1017.2
20260505034031 62 253 0.0 2.0 0.00 0.02 0.02 81 1017.3
20260505033534 62 264 0.0 3.0 0.00 0.02 0.02 81 1017.2
20260505033034 62 266 0.0 3.0 0.00 0.02 0.02 81 1017.2
20260505032531 62 288 0.0 3.0 0.00 0.02 0.02 80 1017.2
20260505032032 62 227 0.0 2.0 0.00 0.02 0.02 81 1017.3
20260505031530 62 253 0.0 2.0 0.00 0.02 0.02 80 1017.2
20260505030532 62 259 0.0 2.0 0.00 0.02 0.02 79 1017.3
20260505030030 62 221 0.0 2.0 0.00 0.02 0.02 79 1017.3
20260505025530 62 205 1.0 3.0 0.00 0.02 0.02 79 1017.4
20260505025029 62 218 0.0 3.0 0.00 0.02 0.02 79 1017.3
20260505024529 62 237 1.0 3.0 0.00 0.02 0.02 79 1017.3
20260505024029 62 244 0.0 3.0 0.00 0.02 0.02 79 1017.3
20260505023530 62 246 0.0 3.0 0.00 0.02 0.02 79 1017.3
20260505023030 62 254 0.0 3.0 0.00 0.02 0.02 78 1017.3
20260505022529 62 256 0.0 2.0 0.00 0.02 0.02 79 1017.3
20260505022029 62 244 0.0 3.0 0.00 0.02 0.02 78 1017.4
20260505021531 63 244 0.0 3.0 0.00 0.02 0.02 78 1017.4
20260505020530 63 258 1.0 5.0 0.00 0.02 0.02 78 1017.4
20260505020039 63 265 0.0 3.0 0.00 0.02 0.02 78 1017.4
20260505015530 63 228 0.0 3.0 0.00 0.02 0.02 77 1017.4
20260505015031 62 242 0.0 2.0 0.00 0.02 0.02 77 1017.4
20260505014543 63 241 0.0 1.0 0.00 0.02 0.02 77 1017.3
20260505014030 63 241 0.0 4.0 0.00 0.02 0.02 76 1017.2
20260505013532 63 242 1.0 4.0 0.00 0.02 0.02 75 1017.2
20260505013038 63 212 0.0 3.0 0.00 0.02 0.02 75 1017.1
20260505012530 63 228 0.0 4.0 0.00 0.02 0.02 75 1017.0
20260505012029 64 228 0.0 5.0 0.00 0.02 0.02 74 1017.0
20260505011535 63 243 1.0 5.0 0.01 0.02 0.02 74 1016.9
20260505010527 64 233 0.0 3.0 0.02 0.02 0.02 73 1016.9
20260505010027 64 262 0.0 2.0 0.02 0.02 0.02 73 1016.8
20260505005529 64 245 0.0 4.0 0.02 0.02 0.02 73 1016.7
20260505005028 64 267 0.0 6.0 0.02 0.02 0.02 72 1016.6
20260505004539 64 221 0.0 6.0 0.02 0.02 0.02 73 1016.6
20260505004027 64 278 0.0 1.0 0.02 0.02 0.02 72 1016.5
20260505003527 64 259 0.0 5.0 0.02 0.02 0.02 72 1016.5
20260505003048 64 272 0.0 5.0 0.02 0.02 0.02 71 1016.5
20260505002526 64 330 0.0 5.0 0.02 0.02 0.02 71 1016.5
20260505002026 64 288 1.0 6.0 0.02 0.02 0.02 71 1016.5
20260505001526 64 261 0.0 4.0 0.02 0.02 0.02 71 1016.4
20260505000526 65 235 0.0 3.0 0.00 0.00 0.00 69 1016.3
20260505000126 65 252 1.0 3.0 0.00 0.00 0.00 69 1016.3
20260504235526 65 242 0.0 3.0 0.00 0.00 0.00 68 1016.3
20260504235026 66 250 1.0 8.0 0.00 0.00 0.00 68 1016.3
20260504234525 66 237 0.0 8.0 0.00 0.00 0.00 67 1016.4
20260504234026 66 252 0.0 3.0 0.00 0.00 0.00 67 1016.3
20260504233525 67 228 1.0 6.0 0.00 0.00 0.00 66 1016.2
20260504233028 67 285 1.0 6.0 0.00 0.00 0.00 66 1016.2
20260504232527 67 278 1.0 8.0 0.00 0.00 0.00 65 1016.2
20260504232024 68 299 2.0 10.0 0.00 0.00 0.00 65 1016.2
20260504231525 68 259 3.0 10.0 0.00 0.00 0.00 63 1016.1
20260504230524 69 241 2.0 8.0 0.00 0.00 0.00 61 1016.1
20260504230024 69 214 3.0 15.0 0.00 0.00 0.00 62 1016.1
20260504225523 69 238 5.0 15.0 0.00 0.00 0.00 61 1016.1
20260504225024 70 214 2.0 9.0 0.00 0.00 0.00 61 1016.0
20260504224523 70 120 0.0 9.0 0.00 0.00 0.00 61 1016.0
20260504224023 70 116 2.0 10.0 0.00 0.00 0.00 61 1016.0
20260504223523 70 128 3.0 10.0 0.00 0.00 0.00 60 1016.0
20260504223023 70 255 2.0 14.0 0.00 0.00 0.00 60 1016.0
20260504222522 70 148 2.0 14.0 0.00 0.00 0.00 60 1016.0
20260504222023 70 250 3.0 8.0 0.00 0.00 0.00 60 1016.1
20260504221523 70 236 2.0 15.0 0.00 0.00 0.00 60 1016.2
20260504220522 71 217 4.0 15.0 0.00 0.00 0.00 59 1016.1
20260504220022 71 149 5.0 14.0 0.00 0.00 0.00 59 1016.2
20260504215522 71 254 4.0 14.0 0.00 0.00 0.00 59 1016.3
20260504215026 71 104 3.0 13.0 0.00 0.00 0.00 59 1016.2
20260504214523 71 257 2.0 15.0 0.00 0.00 0.00 60 1016.2
20260504214025 71 224 6.0 15.0 0.00 0.00 0.00 58 1016.2
20260504213521 71 270 3.0 10.0 0.00 0.00 0.00 56 1016.2
20260504213026 71 234 1.0 15.0 0.00 0.00 0.00 59 1016.2
20260504212521 71 201 5.0 15.0 0.00 0.00 0.00 58 1016.2
20260504212020 71 329 4.0 14.0 0.00 0.00 0.00 57 1016.3
20260504211533 72 257 5.0 14.0 0.00 0.00 0.00 56 1016.2
20260504210519 72 278 3.0 12.0 0.00 0.00 0.00 56 1016.4
20260504210019 72 280 2.0 13.0 0.00 0.00 0.00 58 1016.3
20260504205519 72 72 1.0 15.0 0.00 0.00 0.00 58 1016.3
20260504205017 71 299 5.0 15.0 0.00 0.00 0.00 56 1016.4
20260504204519 72 257 4.0 18.0 0.00 0.00 0.00 57 1016.3
20260504204018 71 213 6.0 18.0 0.00 0.00 0.00 57 1016.2
20260504203517 72 252 4.0 12.0 0.00 0.00 0.00 56 1016.1
20260504203016 72 257 3.0 11.0 0.00 0.00 0.00 58 1016.3
20260504202516 72 231 3.0 11.0 0.00 0.00 0.00 58 1016.4
20260504202016 72 297 3.0 11.0 0.00 0.00 0.00 56 1016.4
20260504201514 72 227 2.0 15.0 0.00 0.00 0.00 58 1016.4
20260504200515 72 210 4.0 16.0 0.00 0.00 0.00 56 1016.6
20260504200018 72 216 3.0 15.0 0.00 0.00 0.00 55 1016.7
20260504195516 72 213 2.0 12.0 0.00 0.00 0.00 58 1016.6
20260504195013 72 269 5.0 15.0 0.00 0.00 0.00 56 1016.6
20260504194513 72 282 3.0 15.0 0.00 0.00 0.00 55 1016.6
20260504194012 73 270 3.0 12.0 0.00 0.00 0.00 56 1016.8
20260504193513 73 180 2.0 10.0 0.00 0.00 0.00 54 1016.7
20260504193012 73 241 3.0 10.0 0.00 0.00 0.00 56 1016.8
20260504192509 73 150 2.0 6.0 0.00 0.00 0.00 55 1016.8
20260504192009 73 263 2.0 13.0 0.00 0.00 0.00 55 1016.9
20260504191509 73 263 3.0 14.0 0.00 0.00 0.00 57 1017.0
20260504190509 72 146 5.0 11.0 0.00 0.00 0.00 56 1017.0
20260504190009 72 243 4.0 18.0 0.00 0.00 0.00 57 1017.1
20260504185506 72 236 3.0 18.0 0.00 0.00 0.00 57 1017.0
20260504185006 73 84 2.0 13.0 0.00 0.00 0.00 57 1017.1
20260504184505 72 212 5.0 13.0 0.00 0.00 0.00 57 1017.2
20260504184005 72 165 1.0 10.0 0.00 0.00 0.00 59 1017.2
20260504183505 72 117 5.0 16.0 0.00 0.00 0.00 54 1017.2
20260504183008 72 256 5.0 16.0 0.00 0.00 0.00 55 1017.3
20260504182503 72 233 3.0 12.0 0.00 0.00 0.00 56 1017.4
20260504182003 72 238 3.0 14.0 0.00 0.00 0.00 53 1017.4
20260504181504 72 160 4.0 14.0 0.00 0.00 0.00 53 1017.4
20260504180502 72 271 2.0 11.0 0.00 0.00 0.00 55 1017.4
20260504180000 72 90 3.0 11.0 0.00 0.00 0.00 54 1017.4
20260504175600 72 251 3.0 10.0 0.00 0.00 0.00 54 1017.5
20260504175100 72 288 3.0 17.0 0.00 0.00 0.00 55 1017.5
20260504174559 72 163 4.0 17.0 0.00 0.00 0.00 54 1017.4
20260504174059 73 232 1.0 11.0 0.00 0.00 0.00 55 1017.5
20260504173603 72 165 3.0 14.0 0.00 0.00 0.00 56 1017.5
20260504173059 72 210 4.0 9.0 0.00 0.00 0.00 55 1017.6
20260504172558 73 147 2.0 7.0 0.00 0.00 0.00 56 1017.5
20260504172057 72 237 2.0 10.0 0.00 0.00 0.00 57 1017.5
20260504171557 72 271 3.0 0.0 0.00 0.00 0.00 58 1017.6
20260504171159 72 120 1.0 9.0 0.00 0.00 0.00 62 1017.6
20260504170558 72 340 2.0 12.0 0.00 0.00 0.00 59 1017.6
20260504151148 71 282 5.0 12.0 0.00 0.00 0.00 53 1018.2
20260504150549 71 96 2.0 5.0 0.00 0.00 0.00 53 1018.2
20260504141142 69 246 3.0 7.0 0.00 0.00 0.00 65 1018.3
20260504140543 69 272 3.0 7.0 0.00 0.00 0.00 66 1018.2
20260504130531 65 247 1.0 4.0 0.00 0.00 0.00 78 1018.5
20260504110504 44 16 0.0 0.0 0.00 0.02 0.00 99 1018.8
20260504100600 42 16 0.0 0.0 0.00 0.02 0.00 98 1018.5